Regional Weather Roundup
Issued by NWS Bismarck, ND

Home | Current Version | Previous Version | Text Only | Print | Product List | Glossary On
Versions: 1 2 3 4 5 6 7 8 9 10 11 12 13 14 15 16 17 18 19 20 21 22 23 24 25 26 27 28 29 30 31 32 33 34 35 36 37 38 39 40 41 42 43 44 45 46 47 48 49 50
000
ASUS43 KBIS 260410
RWRBIS

NWR BROADCAST TEXT
NATIONAL WEATHER SERVICE BISMARCK ND
1100 PM CDT TUE JUL 25 2017

NOTE: "FAIR" INDICATES FEW OR NO CLOUDS BELOW 12,000 FEET WITH NO
SIGNIFICANT WEATHER AND/OR OBSTRUCTIONS TO VISIBILITY.


CITY           SKY/WX    TMP DP  RH WIND       PRES   REMARKS
WILLISTON      CLOUDY    73  47  39 N8        30.04R
MINOT          PTCLDY    69  54  58 NW9       30.01R
MINOT AFB      PTCLDY    62  55  77 NW6       30.00R
BISMARCK       CLOUDY    75  54  47 N7        30.01R
DICKINSON      CLOUDY    74  46  36 N7        30.04R
GARRISON         N/A     67  54  63 N3        30.02R
HETTINGER ARPT CLOUDY    70  57  63 CALM      30.07R
JAMESTOWN      MOCLDY    67  57  70 NE3       30.00R
HAZEN          FAIR      72  52  49 VRB5      30.03S
LINTON         FAIR     N/A N/A N/A SE3       30.05R
MANDAN         FAIR      72  52  49 N7        30.03R
STANLEY        FAIR      64  54  68 N7        30.07S
TIOGA          FAIR      64  50  59 N5        30.07S
WATFORD CITY   FAIR      64  43  45 CALM      30.04R
$$

CITY           SKY/WX    TMP DP  RH WIND       PRES   REMARKS
GRAND FORKS    PTCLDY    65  60  84 W5        29.94S
GRAND FORKS AF CLOUDY    62  57  86 W3        29.96R
DEVILS LAKE    CLOUDY    67  61  81 SW3       29.99S
FARGO          MOCLDY    70  62  76 CALM      29.97R
CAVALIER       FAIR      64  59  82 W6        29.93S
GRAFTON        FAIR      64  59  82 W6        29.96R
GWINNER        CLEAR     68  66  94 CALM      30.02R
LANGDON        FAIR      61  61 100 W8        29.98R
ROLLA            N/A     57  57 100 W7        30.00S
$$

CITY           SKY/WX    TMP DP  RH WIND       PRES   REMARKS
ABERDEEN       CLOUDY    76  70  82 N12       30.00R
BUFFALO          N/A     72  56  57 S5        30.04R
RAPID CITY     CLOUDY    75  53  46 N8        30.12R
GLASGOW        CLEAR     73  44  35 N3        30.05S
SIDNEY         CLOUDY    70  44  39 N5        30.04R
WOLF POINT     MOCLDY    72  43  35 N9        30.06R
GLENDIVE       MOCLDY    74  44  34 NW9       30.07R
MILES CITY     CLOUDY    76  39  26 NE6       30.06R
BAKER          CLOUDY    74  42  31 S5        30.10R
$$

CITY           SKY/WX    TMP DP  RH WIND       PRES   REMARKS
BILLINGS       PTCLDY    67  44  43 N7        30.10R
GREAT FALLS    CLEAR     72  36  26 NE13      30.06R
REGINA         PTCLDY    63  52  67 NW6       30.06R
ESTEVAN        PTCLDY    61  54  77 NW3       30.04R
$$





USA.gov is the U.S. government's official web portal to all federal, state and local government web resources and services.